Weather reports worldwide

Advertisment
Trawscoed, United Kingdom (3503): temperature & dewpoint: 11.08.2018 00:00:00 - 17.08.2018 00:00:00 (BST)Trawscoed, United Kingdom (3503): temperature -20cm & temperature -100cm: 11.08.2018 00:00:00 - 17.08.2018 00:00:00 (BST)Trawscoed, United Kingdom (3503): wind speed: 11.08.2018 00:00:00 - 17.08.2018 00:00:00 (BST)Trawscoed, United Kingdom (3503): wind direction: 11.08.2018 00:00:00 - 17.08.2018 00:00:00 (BST)Trawscoed, United Kingdom (3503): reduced air pressure: 11.08.2018 00:00:00 - 17.08.2018 00:00:00 (BST)Trawscoed, United Kingdom (3503): visibility: 11.08.2018 00:00:00 - 17.08.2018 00:00:00 (BST)Trawscoed, United Kingdom (3503): precipitation: 11.08.2018 00:00:00 - 17.08.2018 00:00:00 (BST)
Date & Time tt [°C] td [°C] tt -20cm [°C] tt -100cm [°C] ff [km/h] ff [kn] dd ppp [hPa] vv [km] rr [mm]
17.08.2018 00:00:00 15,4 11,9 - - 5 3 WSW 1016,9 25 0,0
16.08.2018 23:00:00 15,6 12,3 - - 9 5 WSW 1016,5 23 0,0
16.08.2018 22:00:00 15,5 12,6 - - 8 4 SW 1016,2 24 0,0
16.08.2018 21:00:00 15,7 12,6 - - 9 5 SW 1015,5 22 0,0
16.08.2018 20:00:00 15,8 12,0 - - 11 6 WSW 1015,0 20 0,0
16.08.2018 19:00:00 16,5 11,7 - - 18 10 W 1014,7 30 0,0
16.08.2018 18:00:00 16,3 11,3 - - 18 10 W 1014,6 35 0,0
16.08.2018 17:00:00 17,3 10,9 - - 18 10 WSW 1014,1 23 0,0
16.08.2018 16:00:00 17,5 11,6 - - 21 11 W 1013,9 24 0,0
16.08.2018 15:00:00 16,9 11,1 - - 24 13 W 1013,4 30 0,0
16.08.2018 14:00:00 16,9 11,5 - - 18 10 W 1013,1 35 0,0
16.08.2018 13:00:00 16,9 11,4 - - 21 11 W 1012,6 40 0,0
16.08.2018 12:00:00 16,1 11,3 - - 18 10 W 1012,4 25 0,0
16.08.2018 11:00:00 16,1 10,4 - - 16 9 WSW 1012,4 24 0,0
16.08.2018 10:00:00 15,5 10,3 18,0 17,0 15 8 W 1012,3 29 0,0
16.08.2018 09:00:00 14,4 10,7 - - 11 6 WSW 1011,8 24 0,0
16.08.2018 08:00:00 13,8 11,2 - - 8 4 SW 1011,6 22 0,0
16.08.2018 07:00:00 13,9 12,3 - - 5 3 WSW 1011,0 23 0,0
16.08.2018 06:00:00 15,0 13,9 - - 5 3 SW 1010,5 15 0,6
16.08.2018 05:00:00 15,4 14,5 - - 9 5 SW 1010,3 26 1,2
16.08.2018 04:00:00 15,2 14,4 - - 4 2 S 1010,7 8 5,4
16.08.2018 03:00:00 16,1 15,0 - - 13 7 W 1011,0 9 1,4
16.08.2018 02:00:00 16,9 15,7 - - 8 4 WSW 1010,9 16 0,4
16.08.2018 01:00:00 17,1 16,2 - - 8 4 SW 1011,4 22 1,2
16.08.2018 00:00:00 17,3 16,5 - - 4 2 SSE 1011,5 50 0,4
15.08.2018 23:00:00 17,5 16,6 - - 5 3 S 1011,9 50 1,2
15.08.2018 22:00:00 17,4 16,6 - - 9 5 S 1012,3 5 1,4
15.08.2018 21:00:00 17,4 16,6 - - 8 4 S 1012,6 3,8 0,2
15.08.2018 20:00:00 17,4 16,6 - - 9 5 S 1012,8 17 0,8
15.08.2018 19:00:00 17,7 16,6 - - 13 7 S 1013,1 3,0 0,6
15.08.2018 18:00:00 17,8 16,7 - - 11 6 S 1013,6 2,8 1,0
15.08.2018 17:00:00 18,2 16,8 - - 9 5 SSW 1014,1 4,7 0,4
15.08.2018 16:00:00 18,2 16,3 - - 16 9 S 1014,8 9 0,0
15.08.2018 15:00:00 18,8 16,1 - - 11 6 S 1015,3 13 0,0
15.08.2018 14:00:00 19,5 16,3 - - 18 10 SSW 1015,6 35 0,0
15.08.2018 13:00:00 19,5 15,8 - - 16 9 S 1015,6 30 0,0
15.08.2018 12:00:00 19,9 15,9 - - 16 9 SW 1015,8 21 0,0
15.08.2018 11:00:00 19,3 15,9 - - 15 8 SW 1016,1 30 0,0
15.08.2018 10:00:00 18,6 16,2 18,2 17,0 11 6 WSW 1016,2 40 0,0
15.08.2018 09:00:00 18,2 15,9 - - 8 4 SW 1016,2 30 0,0
15.08.2018 08:00:00 17,7 15,4 - - 9 5 SW 1016,3 30 0,0
15.08.2018 07:00:00 17,2 15,4 - - 4 2 SSW 1016,4 40 0,0
15.08.2018 06:00:00 17,0 15,7 - - 5 3 SW 1016,6 30 0,2
15.08.2018 05:00:00 16,7 15,9 - - 8 4 WSW 1016,7 3,5 0,6
15.08.2018 04:00:00 16,6 15,3 - - 5 3 SSW 1016,8 11 0,0
15.08.2018 03:00:00 16,5 15,2 - - 5 3 S 1017,2 21 0,2
15.08.2018 02:00:00 16,7 14,5 - - 8 4 SW 1017,4 19 0,0
15.08.2018 01:00:00 16,3 14,5 - - 8 4 S 1017,6 14 0,0
15.08.2018 00:00:00 16,5 14,1 - - 8 4 SSW 1017,7 14 0,0
14.08.2018 23:00:00 16,7 14,0 - - 4 2 S 1017,9 16 0,0
14.08.2018 22:00:00 16,9 14,3 - - 4 2 SSE 1018,0 18 0,0
14.08.2018 21:00:00 16,8 14,3 - - 4 2 NNE 1017,7 13 0,0
14.08.2018 20:00:00 17,4 14,2 - - 11 6 W 1017,5 19 0,0
14.08.2018 19:00:00 17,9 14,9 - - 11 6 W 1017,4 16 0,0
14.08.2018 18:00:00 17,9 14,7 - - 13 7 W 1017,5 23 0,0
14.08.2018 17:00:00 18,9 15,5 - - 11 6 W 1017,4 26 0,0
14.08.2018 16:00:00 18,4 15,3 - - 11 6 WSW 1017,4 22 0,0
14.08.2018 15:00:00 17,9 15,6 - - 13 7 W 1017,1 12 0,0
14.08.2018 14:00:00 18,5 16,0 - - 13 7 W 1016,8 29 0,0
14.08.2018 13:00:00 18,0 15,6 - - 13 7 WSW 1016,8 30 0,0
14.08.2018 12:00:00 17,8 15,7 - - 13 7 W 1016,8 35 0,0
14.08.2018 11:00:00 17,5 14,9 - - 11 6 W 1016,7 50 0,0
14.08.2018 10:00:00 17,5 15,0 18,2 17,0 9 5 W 1016,3 35 0,0
14.08.2018 09:00:00 16,7 14,6 - - 11 6 WSW 1016,1 45 0,0
14.08.2018 08:00:00 16,8 14,6 - - 4 2 SW 1015,4 30 0,0
14.08.2018 07:00:00 16,5 15,1 - - 5 3 SW 1015,1 28 0,0
14.08.2018 06:00:00 16,2 14,9 - - 5 3 SW 1014,8 28 0,0
14.08.2018 05:00:00 15,8 14,5 - - 0 0 N 1014,6 40 0,0
14.08.2018 04:00:00 15,5 14,3 - - 5 3 ESE 1014,6 40 0,0
14.08.2018 03:00:00 15,6 14,2 - - 2 1 N 1014,4 30 0,0
14.08.2018 02:00:00 15,7 14,4 - - 2 1 E 1014,2 23 0,0
14.08.2018 01:00:00 15,4 14,5 - - 4 2 E 1014,3 16 0,0
14.08.2018 00:00:00 15,5 14,5 - - 2 1 SSW 1013,9 12 0,0
13.08.2018 23:00:00 15,8 14,4 - - 4 2 E 1013,5 12 0,0
13.08.2018 22:00:00 16,0 14,2 - - 2 1 SE 1013,3 16 0,0
13.08.2018 21:00:00 16,2 13,9 - - 4 2 WNW 1012,8 26 0,0
13.08.2018 20:00:00 16,6 13,8 - - 9 5 W 1012,2 35 0,0
13.08.2018 19:00:00 16,9 13,4 - - 13 7 WNW 1011,7 35 0,0
13.08.2018 18:00:00 18,7 14,4 - - 15 8 WNW 1011,3 35 0,0
13.08.2018 17:00:00 19,3 14,9 - - 15 8 WNW 1011,1 28 0,0
13.08.2018 16:00:00 18,5 14,2 - - 21 11 WNW 1010,8 30 0,0
13.08.2018 15:00:00 18,8 14,8 - - 22 12 WNW 1010,5 30 0,0
13.08.2018 14:00:00 17,4 15,0 - - 15 8 WNW 1010,2 27 0,0
13.08.2018 13:00:00 16,2 14,6 - - 15 8 NW 1009,9 27 0,0
13.08.2018 12:00:00 16,2 15,3 - - 13 7 NW 1009,2 2,8 0,0
13.08.2018 11:00:00 17,6 15,3 - - 8 4 WNW 1008,3 23 0,0
13.08.2018 10:00:00 16,8 15,4 18,2 17,0 2 1 SE 1007,9 10 0,0
13.08.2018 09:00:00 16,0 14,7 - - 4 2 SE 1007,4 27 0,0
13.08.2018 08:00:00 14,7 14,5 - - 4 2 SSE 1007,3 28 0,0
13.08.2018 07:00:00 13,7 13,6 - - 5 3 SE 1006,7 13 0,0
13.08.2018 06:00:00 13,0 12,8 - - 4 2 W 1006,3 8 0,0
13.08.2018 05:00:00 13,3 13,1 - - 2 1 WSW 1006,2 9 0,0
13.08.2018 04:00:00 13,2 13,0 - - 2 1 W 1006,3 11 0,0
13.08.2018 03:00:00 13,1 12,8 - - 2 1 SE 1006,1 0,1 0,0
13.08.2018 02:00:00 13,9 13,6 - - 2 1 SE 1006,1 18 0,0
13.08.2018 01:00:00 13,6 13,3 - - 2 1 SE 1006,4 20 0,0
13.08.2018 00:00:00 14,9 14,3 - - 2 1 S 1006,4 6 0,0
12.08.2018 23:00:00 15,6 14,9 - - 2 1 W 1006,3 45 0,4
12.08.2018 22:00:00 15,8 14,9 - - 0 0 N 1006,3 5 0,0
12.08.2018 21:00:00 15,9 14,6 - - 5 3 NNW 1005,9 6 0,4
12.08.2018 20:00:00 17,2 14,7 - - 4 2 NW 1005,7 45 0,2
12.08.2018 19:00:00 18,2 15,0 - - 5 3 W 1005,7 40 0,0
12.08.2018 18:00:00 18,9 15,5 - - 9 5 WNW 1005,7 45 0,0
12.08.2018 17:00:00 19,3 15,9 - - 11 6 WNW 1005,8 50 0,0
12.08.2018 16:00:00 19,5 16,4 - - 15 8 W 1005,7 29 0,0
12.08.2018 15:00:00 20,8 15,3 - - 13 7 S 1005,7 35 0,0
12.08.2018 14:00:00 19,7 16,6 - - 13 7 SSW 1006,0 50 0,0
12.08.2018 13:00:00 20,0 16,8 - - 16 9 SSE 1006,0 6 0,0
12.08.2018 12:00:00 20,4 16,6 - - 11 6 SSE 1006,1 40 0,0
12.08.2018 11:00:00 19,5 16,6 - - 13 7 SSE 1006,6 40 0,0
12.08.2018 10:00:00 20,0 17,4 17,7 17,2 11 6 S 1006,7 30 0,0
12.08.2018 09:00:00 17,9 16,6 - - 9 5 SSE 1006,9 6 0,2
12.08.2018 08:00:00 17,9 16,8 - - 9 5 SSE 1007,3 50 0,0
12.08.2018 07:00:00 17,6 16,7 - - 8 4 SE 1007,7 40 0,0
12.08.2018 06:00:00 17,3 16,6 - - 15 8 SSE 1008,1 7 0,2
12.08.2018 05:00:00 17,2 16,6 - - 11 6 SSE 1008,3 4,4 0,8
12.08.2018 04:00:00 17,2 16,4 - - 9 5 SSE 1009,1 7 2,4
12.08.2018 03:00:00 17,0 16,1 - - 15 8 SSE 1009,4 17 5,6
12.08.2018 02:00:00 17,0 16,1 - - 9 5 SSE 1010,3 5 2,8
12.08.2018 01:00:00 17,2 16,0 - - 13 7 SSE 1011,0 6 1,4
12.08.2018 00:00:00 17,1 15,8 - - 9 5 S 1011,9 21 0,8
11.08.2018 23:00:00 17,3 15,8 - - 21 11 SSE 1012,2 16 0,2
11.08.2018 22:00:00 17,0 15,7 - - 18 10 SSE 1013,1 11 0,4
11.08.2018 21:00:00 17,5 15,8 - - 16 9 S 1013,5 8 0,2
11.08.2018 20:00:00 17,3 16,1 - - 18 10 SSE 1014,0 6 0,2
11.08.2018 19:00:00 17,9 16,0 - - 21 11 SSE 1014,5 6 0,2
11.08.2018 18:00:00 17,7 15,6 - - 18 10 SSE 1015,1 50 0,0
11.08.2018 17:00:00 17,0 15,5 - - 16 9 SSE 1015,7 50 1,0
11.08.2018 16:00:00 17,1 14,6 - - 18 10 SSE 1016,4 9 0,2
11.08.2018 15:00:00 18,1 13,7 - - 13 7 SSE 1017,5 50 0,0
11.08.2018 14:00:00 17,7 12,5 - - 13 7 SE 1018,2 45 0,0
11.08.2018 13:00:00 17,5 11,5 - - 16 9 SSE 1019,0 14 0,0
11.08.2018 12:00:00 17,8 11,0 - - 13 7 SE 1019,6 50 0,0
11.08.2018 11:00:00 17,0 9,9 - - 16 9 SSE 1020,0 50 0,0
11.08.2018 10:00:00 17,2 9,7 17,7 17,2 13 7 SSE 1020,4 45 0,0
11.08.2018 09:00:00 15,8 11,1 - - 13 7 SSE 1020,9 40 0,0
11.08.2018 08:00:00 11,5 11,4 - - 2 1 N 1021,4 30 0,0
11.08.2018 07:00:00 6,9 6,7 - - 2 1 SE 1022,0 13 0,0
11.08.2018 06:00:00 6,8 6,5 - - 2 1 E 1021,9 13 0,0
11.08.2018 05:00:00 7,5 7,1 - - 0 0 N 1022,0 14 0,0
11.08.2018 04:00:00 7,7 7,0 - - 2 1 NNE 1022,1 30 0,0
11.08.2018 03:00:00 9,8 9,1 - - 4 2 S 1022,2 50 0,0
11.08.2018 02:00:00 9,2 8,8 - - 2 1 SE 1022,2 45 0,0
11.08.2018 01:00:00 8,6 8,4 - - 2 1 NW 1022,2 40 0,0
11.08.2018 00:00:00 7,0 6,3 - - 2 1 NW 1022,3 25 0,0

tt = temperature
td = dewpoint
tt -20cm = temperature -20cm
tt -100cm = temperature -100cm
ff = wind speed
dd = wind direction
ppp = reduced air pressure
vv = visibility
rr = precipitation

Next stations